Location: Medlow Airstrip Trail, Medlow Bath NSW 2780, Australia
(33.6682°S, 150.3233°E)
Time: 00:23:47
(UTC+10:00)

A-11 Canister half - Visible Passes

Search period start: 18 September 2019 00:00
Search period end: 28 September 2019 00:00
Orbit: 1514 x 1686 km, 47.2° (Epoch: 15 September)

Date Brightness Start Highest point End Pass type
(mag) Time Alt. Az. Time Alt. Az. Time Alt. Az.
18 Sep 10.2 01:28:10 35° SSE 01:28:10 35° SSE 01:35:18 10° ESE visible
18 Sep 9.8 03:26:21 20° SW 03:33:18 48° SSE 03:42:50 10° E visible
18 Sep 9.2 05:28:54 10° SW 05:39:01 77° NW 05:48:43 10° NE visible
18 Sep 10.5 20:41:58 10° NNW 20:44:33 20° NNW 20:44:33 20° NNW visible
19 Sep 10.4 01:06:19 31° SSE 01:06:19 31° SSE 01:12:15 10° ESE visible
19 Sep 9.8 03:04:30 25° SW 03:10:15 46° SSE 03:19:45 10° E visible
19 Sep 9.1 05:05:55 10° SW 05:16:06 81° NW 05:25:52 10° NE visible
19 Sep 10.0 20:19:15 10° NNW 20:24:13 30° N 20:24:13 30° N visible
19 Sep11.322:46:21SE22:46:21SE22:22:32WNWvisible
20 Sep 10.6 00:44:32 27° SE 00:44:32 27° SE 00:49:13 10° ESE visible
20 Sep 9.9 02:42:43 31° SSW 02:47:12 45° SSE 02:56:40 10° E visible
20 Sep 9.1 04:42:56 10° SW 04:53:09 85° NW 05:02:58 10° NE visible
20 Sep 9.5 19:56:33 10° NNW 20:04:01 38° NNE 20:04:01 38° NNE visible
20 Sep 10.7 22:00:05 10° WNW 22:02:20 19° WNW 22:02:20 19° WNW visible
21 Sep 10.8 00:22:48 22° SE 00:22:48 22° SE 00:26:10 10° ESE visible
21 Sep 9.9 02:21:00 36° SSW 02:24:08 44° SSE 02:33:36 10° E visible
21 Sep 9.1 04:19:56 10° SW 04:30:12 89° NW 04:40:04 10° NE visible
21 Sep 9.5 19:33:52 10° NNW 19:42:37 37° NE 19:43:55 36° ENE visible
21 Sep 10.0 21:37:06 10° WNW 21:42:14 36° WNW 21:42:14 36° WNW visible
22 Sep 11.0 00:01:10 17° SE 00:01:10 17° SE 00:03:08 10° ESE visible
22 Sep 9.9 01:59:21 40° S 02:01:04 43° SSE 02:10:31 10° E visible
22 Sep 9.1 03:57:34 12° SW 04:07:14 87° SE 04:17:09 10° NE visible
22 Sep 9.6 19:11:13 10° N 19:19:45 34° NE 19:23:52 25° E visible
22 Sep 9.3 21:14:08 10° WNW 21:22:12 63° WNW 21:22:12 63° WNW visible
22 Sep 11.2 23:39:38 12° SE 23:39:38 12° SE 23:40:05 10° SE visible
23 Sep 9.9 01:37:50 42° SSE 01:37:59 42° SSE 01:47:25 10° E visible
23 Sep 9.1 03:36:04 18° SW 03:44:16 83° SE 03:54:13 10° NE visible
23 Sep 9.7 18:48:36 10° N 18:56:52 32° NE 19:03:50 15° ESE visible
23 Sep 9.0 20:51:11 10° NW 21:01:12 83° SW 21:02:10 75° SSE visible
23 Sep 10.8 22:58:00 10° W 23:18:16 - ESE 23:00:30 19° WSW visible
24 Sep 10.1 01:16:29 39° SSE 01:16:29 39° SSE 01:24:19 10° E visible
24 Sep 9.1 03:14:43 26° SW 03:21:18 79° SE 03:31:15 10° ENE visible
24 Sep 9.7 05:17:01 10° WSW 05:25:42 34° NW 05:34:08 10° N visible
24 Sep 9.8 18:26:01 10° N 18:34:00 29° NE 18:42:13 10° ESE visible
24 Sep 9.0 20:28:14 10° NW 20:38:13 86° SW 20:42:04 46° SE visible
24 Sep 10.3 22:34:54 10° W 22:57:05 - ESE 22:40:23 31° WSW visible
25 Sep 10.3 00:55:20 32° SE 00:55:20 32° SE 01:01:14 10° ESE visible
25 Sep 9.1 02:53:35 38° SW 02:58:19 76° SSE 03:08:18 10° ENE visible
25 Sep 9.6 04:53:54 10° WSW 05:02:50 37° NW 05:11:30 10° NNE visible
25 Sep 9.0 20:05:19 10° NW 20:15:16 90° NE 20:21:48 27° SE visible
25 Sep 9.9 22:11:49 10° W 22:20:06 42° SSW 22:20:06 42° SSW visible
26 Sep 10.7 00:34:26 23° ESE 00:34:26 23° ESE 00:38:07 10° ESE visible
26 Sep 9.2 02:32:42 54° SSW 02:35:19 72° SSE 02:45:19 10° ENE visible
26 Sep 9.5 04:30:58 11° WSW 04:39:57 40° NW 04:48:49 10° NNE visible
26 Sep 9.0 19:42:24 10° NW 19:52:18 85° NE 20:01:19 15° SE visible
26 Sep 9.8 21:48:43 10° W 21:58:17 45° SSW 21:59:37 43° S visible
26 Sep 11.0 23:56:14 10° WSW 00:13:47 14° ESE 00:15:01 10° ESE visible
27 Sep 9.2 02:12:05 69° SSE 02:12:19 69° SSE 02:22:20 10° ENE visible
27 Sep 9.4 04:10:22 19° WSW 04:17:04 43° NW 04:26:08 10° NNE visible
27 Sep 9.0 19:19:30 10° NW 19:29:21 81° NE 19:39:35 10° SE visible
27 Sep 9.8 21:25:39 10° W 21:35:13 46° SSW 21:38:50 35° SSE visible
27 Sep 10.7 23:33:11 10° WSW 23:53:24 - ESE 23:37:06 24° SW visible
